Location: Downe
(51.3167°N, 0.0500°E)
Time: 05:37:54
(UTC+00:00)

Cosmos 2237 Rocket - Pass Details

Date: 17 November 2019
Orbit: 834 x 851 km, 71.0° (Epoch: 05 December)

Event Time Altitude Azimuth Distance (km) Brightness Sun altitude
Exits shadow 06:32:42 - 331° (NNW) 3,365 4.9 -7.5°
Reaches altitude 10° 06:35:06 10° 337° (NNW) 2,486 4.2 -7.1°
Maximum altitude 06:40:36 48° 51° (NE) 1,105 3.1 -6.3°
Drops below altitude 10° 06:46:04 10° 126° (SE) 2,463 6.3 -5.6°
Sets 06:48:35 0° 132° (SE) 3,392 7.1 -5.2°
